Погода в Отаре

Погода в Отаре : погода сейчас, прогноз погоды и архив. Всё, что Вы хотите узнать о погоде в Отаре!

Поиск расширенной информации на нашем сайте:

Другие новости

Новости СМИ2

Главная страница сайта

Новости сайта

03.07.2017

Напоминаем, что на нашем специализированном сайте Метеоцентр.Азия вы можете получить высокодетализированные автоматические прогнозы погоды по пунктам России, СНГ и мира в авиационном формате (включающие направление и скорость ветра, видимость, явления погоды, количество и форму облачности, нижнюю и верхнюю границу облачности).


Погода в Отаре - сегодня

Время (UTC), дата Ветер
(°,м/с) 
Видим.   Явления Облачность Т
(°С)
Тd
(°С)
f(%) Тe
(°С)
Pmin
(гПа)
dP
(гПа)
Po
(мм)
O2
(г/м3)
Тmin Tmax R s Состояние
почвы
06 20.09.17 070 (В) 20000 м    ясно 
+23.8 -2.2 18 +24  1018  -0.6  702  260  +8.2         
09 20.09.17 070 (В) 20000 м    ясно 
+24.7 -3.3 15 +25      751  278           
12 20.09.17 070 (В) 20000 м    ясно 
+23.3 -7.1 13 +23  1016.2  -0.8  700  261           
15 20.09.17 090 (В) н/о    ясно 
+16.7 -5 22 +16  1019.1  0.9  701  267    +25.5       
18 20.09.17 020 (С) н/о    ясно 
+11.8 -6.4 27 +11  1020.1  -0.4  701  271    +25.5       
21 20.09.17 тихо ()   н/о    ясно 
+9.6 -2.2 44 +10  1019.5  -1.2  700  272           
00 21.09.17 тихо ()   н/о    ясно 
+6.6 -4.7 44 +7  1019.6  -0.8  699  275           
03 21.09.17 140 (ЮВ) 20000 м    ясно 
+12.9 -4.4 30 +14  1017  -0.6             
06 21.09.17 090 (В) 20000 м    ясно 
+21.9 -5.7 15 +22  1012.9  -1.2  698  261  +6.4         
09 21.09.17 070 (В) 20000 м    ясно 
+25.6 -9 9 +26  1010.2  -1.7  697  257           
12 21.09.17 070 (В) 20000 м    3/0 верхняя 
[Ci fib]
+24.9 -4.7 14 +25  1011.5  1.1  697  258           
15 21.09.17 тихо ()   н/о    ясно 
+16.8 -2.2 27 +17  1013.8  697  265    +31.2      мокрая 
18 21.09.17 тихо ()   н/о    ясно 
+11.6 -0.9 42 +12  1015.4  0.1  697  270    +26.5       
21 21.09.17 тихо ()   н/о    ясно 
+9.8 +0.2 51 +10  1015.6  -0.4  697  271           
00 22.09.17 тихо () {08}  н/о    3/0 верхняя 
[Ci fib]
+7 -0.5 59 +7  1017.1  0.6  698  274           
03 22.09.17 тихо ()   20000 м    ясно 
+13.7 -1.4 35 +14  1014.6  -0.4  697  268           
06 22.09.17 110 (В) 20000 м    ясно 
+24.5 -1.4 18 +25  1010.3  -1.1  696  258  +6.8         
09 22.09.17 090 (В) 20000 м    ясно 
+26.8 -0.7 16 +27  1008.1  -1.4  695  255           
12 22.09.17 110 (В) 20000 м    ясно 
+25.2 +0.6 20 +25  1008.4  -0.2  695  256           
15 22.09.17 тихо ()   н/о    ясно 
+16.5 +1.9 37 +17  1011.4  0.5  696  264    +28       
18 22.09.17 тихо ()   н/о    ясно 
+13.3 -0.5 39 +13  1012.3  -0.1  696  267    +28       
21 22.09.17 тихо ()   н/о    ясно 
+9.8 -2.7 41 +10  1012.6  -0.8  695  270           
00 23.09.17 тихо ()   н/о    5/3 1000 м верхняя 
[Cu hum|Ci fib]
+10.7 +1.5 53 +11  1012  -0.1  695  269           
03 23.09.17 250 (З) 20000 м    5/3 1000 м верхняя 
[Cu hum|Ci fib]
+19.4 +1.3 30 +20  1011.3  1.7             
06 23.09.17 270 (З) 20000 м    8/3 1000 м средняя, верхняя 
[Cu hum|Ac und|Ci fib]
+26.4 -1.2 16 +26  1008.7  -0.6  696  256  +9.6         
Время (UTC), дата Ветер
(°,м/с) 
Видим.   Явления Облачность Т
(°С)
Тd
(°С)
f(%) Тe
(°С)
Pmin
(гПа)
dP
(гПа)
Po
(мм)
O2
(г/м3)
Тmin Tmax R s Состояние
почвы

Для получения пояснительной информации подведите курсор к названию столбца.

ПОГОДА в Отаре - архив

Всё, что Вы хотите узнать о погоде в Отаре - удобно и подробно!

Выберите нужную дату (начиная с 1 января 2015* года) и нажмите кнопку "Найти".
Будут отображены архивные сводки погоды по пункту Отар, начиная с указанной даты.


Отображать данные в формате CSV (для использования в таблицах Excel)


Внимание! Наш архив погоды предназначен исключительно для личного некоммерческого использования в познавательных целях. Если Вам необходимы официальные справки о состоянии погоды (для производственных, юридических, коммерческих и т.п. целей), обращайтесь в органы Росгидромета.

*Примечание: данная дата относится к архиву по метеостанциям СССР (Россия, СНГ, Балтия).
Архив по метеостанциям Зарубежной Европы и Азии (кроме Китая) хранится 10 дней, по другим регионам земного шара (Китай, Африка, Америка, Австралия, Океания) - 1 день.

Отар - район местоположения метеостанции


Название, широта, долгота, высота метеостанции:
Отар 43.5°ш. 75.2°д. 743 м над ур. моря [Казахстан]

Дополнительная информация

В oтличие oт бoльшинства пoгoдных сайтoв мы публикуем пoдрoбную метеoинфoрмацию в детальнoм прoфессиoнальнoм фoрмате.

Характеристики температуры и влажнoсти вoздуха измеряются на высoте 2 м в тени вдали oт зданий и деревьев.
Скoрoсть ветра измеряется на высoте 10 м (на урoвне рoста челoвека скoрoсть ветра ниже в 1.5-2 раза). Если метеoстанция нахoдится в гoрoде или в лесу, тo скoрoсть ветра занижена на 2-4 м/с пo сравнению с oткрытым местoм. Скoрoсть ветра над акватoриями крупных рек и oзёр, а также на вершинах хoлмoв на 2-5 м/с выше, чем в oбычных услoвиях.
Атмoсфернoе давление в разных тoчках местнoсти мoжет значительнo oтличаться oт давления на метеoстанции, в зависимoсти oт услoвий рельефа (при пoдъёме на 10 м давление пoнижается примернo на 1 мм рт.ст.).